Kuchera_Ratio
0.0 0.0 0.0 0.0 0.0 0.0 0.0 0.0 0.0 0.0 0.0 0.0 0.0 0.0 0.0 0.0 0.0 0.0 0.0 0.0 0.0 4.2 1.2 0.0 0.0 0.0 0.0 0.0 0.0 0.0 0.0 0.0 0.0 0.0 2.0 3.8 2.6 0.0 0.0 0.0 0.0 0.0 1.8 2.6 1.0 5.2 6.4 0.0 0.0 0.0 0.0 0.0 0.0 0.0
0.0 0.0 0.0 0.0 0.0 0.0 0.0 0.0 0.0 0.0 0.0 0.0 0.0 0.0 0.0 0.0 0.0 0.0 0.0 0.0 0.0 0.0 2.6 0.0 0.0 0.0 0.0 0.0 0.0 0.0 0.2 0.0 0.2 0.0 0.0 0.0 4.2 0.0 0.0 0.0 0.0 0.0 0.0 0.0 0.0 0.0 0.0 0.0 0.0 0.0 0.0 0.0 0.0 0.0
0.0 0.0 0.0 0.0 0.0 0.0 0.0 0.0 0.0 0.0 0.0 0.0 0.0 0.0 0.0 0.0 0.0 0.0 0.0 0.0 0.0 0.0 0.0 0.0 0.0 0.0 0.0 0.0 0.0 2.4 2.2 0.0 4.2 1.4 5.6 5.6 7.8 5.6 2.4 0.0 0.0 0.0 0.0 0.0 0.0 0.0 0.0 0.0 0.0 0.0 0.0 0.0 0.0 0.0
0.0 0.0 0.0 0.0 0.0 0.0 0.0 0.0 0.0 0.0 0.0 0.0 0.0 0.0 0.0 0.0 0.0 0.0 0.0 0.0 0.0 0.0 4.4 0.8 0.0 0.0 0.0 0.0 0.0 0.0 0.0 0.0 0.6 2.2 5.4 5.8 5.8 3.8 4.0 5.2 4.2 0.0 0.0 0.0 0.0 0.0 0.0 0.0 0.0 0.0 0.0 0.0 0.0 0.0
0.0 0.0 0.0 0.0 0.0 0.0 0.0 0.0 0.0 0.0 0.0 0.0 0.0 0.0 0.0 0.0 0.0 0.0 0.0 0.0 0.0 0.0 3.0 0.0 0.0 0.0 0.0 0.0 0.0 0.0 0.0 0.0 0.4 6.4 7.4 6.2 2.4 2.4 1.0 2.6 1.4 0.0 0.0 0.0 0.2 0.0 0.0 0.0 0.0 0.0 0.0 0.0 0.0 0.0
0.0 0.0 0.0 0.0 0.0 0.0 0.0 0.0 0.0 0.0 0.0 0.0 0.0 0.0 0.0 0.0 0.0 0.0 4.8 0.0 0.0 0.0 0.0 3.8 0.0 0.0 0.0 0.0 0.0 0.0 0.0 0.0 0.0 3.0 4.0 1.6 0.0 0.0 6.0 5.0 0.0 0.0 0.0 0.0 0.0 0.0 0.0 0.0 0.0 0.0 0.0 0.0 0.0 0.0
0.0 0.0 0.0 0.0 0.0 0.0 0.0 0.0 0.0 0.0 0.0 0.0 0.0 0.0 0.0 0.0 0.0 0.0 1.6 0.0 0.0 0.0 0.0 2.2 0.8 0.0 0.0 0.0 0.0 0.0 0.0 0.0 0.0 3.2 4.6 0.0 0.0 0.0 5.4 6.8 0.0 0.0 0.0 0.0 0.0 0.0 0.0 0.0 0.0 0.0 0.0 0.0 0.0 0.0
0.0 0.0 0.0 0.0 0.0 0.0 0.0 0.0 0.0 0.0 0.0 0.0 0.0 0.0 0.0 0.0 0.0 0.0 0.0 0.0 0.0 0.0 0.0 4.6 4.8 0.2 0.0 1.6 3.0 0.0 0.0 0.8 3.4 3.8 2.8 2.4 0.0 3.0 8.0 0.0 0.0 0.0 0.0 0.0 0.0 0.0 0.0 0.0 0.0 0.0 0.0 0.0 0.0 0.0
0.0 0.0 0.0 0.0 0.0 0.0 0.0 0.0 0.0 0.0 0.0 0.0 0.0 0.0 0.0 0.0 5.2 0.0 0.0 0.0 0.0 0.0 4.8 1.4 2.0 5.8 0.0 0.2 0.0 0.0 0.4 8.0 0.0 6.4 1.2 0.0 0.0 7.2 0.0 0.0 0.0 0.0 0.0 0.0 0.0 0.0 0.0 0.0 0.0 0.0 0.0 0.0 0.0 0.0
0.0 0.0 0.0 0.0 0.0 0.0 0.0 0.0 0.0 0.0 0.0 0.0 0.0 1.4 7.4 0.8 0.0 0.0 0.0 5.8 5.0 2.4 0.0 0.0 0.0 1.0 0.0 0.2 2.0 1.4 2.6 5.4 8.4 0.0 0.0 3.2 0.4 0.0 0.0 0.0 0.0 0.0 0.0 0.0 0.0 0.0 0.0 0.0 0.0 0.0 0.0 0.0 0.0 0.0
0.0 0.0 0.0 0.0 0.0 0.0 0.0 0.0 0.0 0.0 0.0 0.0 2.6 6.6 0.0 0.0 0.0 2.8 7.4 7.2 5.8 7.6 0.8 0.0 0.0 0.0 0.0 3.0 3.2 0.0 3.4 0.0 8.2 0.0 3.2 2.8 0.0 0.0 0.0 0.0 0.0 0.0 0.0 0.0 0.0 0.0 0.0 0.0 0.0 0.0 0.0 0.0 0.0 1.6
0.0 0.0 0.0 0.0 0.0 0.0 0.0 0.0 0.0 0.0 0.0 0.0 0.0 0.0 0.0 0.6 2.2 6.0 7.2 2.0 1.4 1.2 0.0 0.0 0.0 0.0 0.0 0.0 0.0 0.0 4.6 0.0 10.2 0.0 6.8 7.6 0.0 0.0 0.0 0.0 0.0 0.0 0.0 0.0 0.0 0.0 0.0 0.0 0.0 0.0 2.2 4.0 5.6 5.4
0.0 0.0 0.0 0.0 0.0 0.0 0.0 0.0 0.0 0.0 0.0 0.0 0.0 2.2 1.6 1.6 10.6 10.6 13.1 4.6 2.6 0.0 0.0 0.0 4.2 1.0 0.0 0.0 1.2 1.2 10.2 9.0 0.0 8.8 8.4 0.0 0.0 0.0 0.0 0.0 0.0 0.0 0.0 0.0 0.0 1.6 3.8 5.4 5.2 5.8 7.6 7.0 5.6 6.0
0.0 0.0 0.0 0.0 0.0 0.0 0.0 0.0 0.0 0.0 0.0 0.0 1.0 11.0 6.6 10.8 3.2 0.0 0.0 0.0 0.0 0.0 0.0 0.0 3.4 2.0 0.0 2.0 1.4 10.8 0.8 0.2 11.8 13.2 7.8 0.0 0.0 0.0 0.0 0.0 0.0 2.6 3.8 5.6 6.8 5.8 5.8 6.4 8.4 7.4 7.4 7.4 7.4 8.2
0.0 0.0 0.0 0.0 0.0 0.0 0.0 0.0 0.0 0.0 0.0 0.0 0.0 9.4 5.6 0.0 0.0 0.0 0.0 0.0 0.0 0.0 0.4 4.2 1.0 0.4 3.2 7.6 2.4 4.0 12.0 12.6 8.2 5.2 0.0 0.0 0.0 0.0 0.0 0.0 1.6 4.8 5.6 4.0 4.0 6.8 8.0 7.2 6.0 7.8 6.4 4.6 5.8 8.2
0.0 0.0 0.0 0.0 0.0 0.0 0.0 0.0 0.0 0.0 0.0 0.0 0.0 4.0 0.0 3.2 8.8 5.8 2.2 5.0 0.0 0.0 0.0 0.0 3.6 6.8 7.6 4.2 9.0 10.8 9.6 10.2 2.4 0.0 0.0 0.0 0.0 0.0 0.8 3.6 4.2 3.8 0.2 0.4 0.8 2.0 3.6 5.6 5.0 4.2 4.8 6.4 9.0 8.8
0.0 0.0 0.0 0.0 0.0 0.0 0.0 0.0 0.0 0.0 0.0 0.0 2.0 0.0 0.0 0.0 3.4 3.8 0.0 0.2 0.0 1.8 5.6 0.4 9.2 8.0 0.4 8.4 9.4 0.6 6.2 0.0 0.0 0.0 0.0 0.0 0.0 0.6 2.0 5.0 6.6 6.0 1.8 0.4 1.0 1.4 1.8 1.2 1.2 2.0 5.4 5.0 4.2 6.4
0.0 0.0 0.0 0.0 0.0 0.0 0.0 0.0 0.0 0.0 0.8 0.0 0.6 0.0 0.0 0.0 2.8 1.8 0.0 0.0 0.4 1.2 0.0 3.6 0.0 6.6 9.6 8.6 5.2 0.0 0.0 0.0 0.0 0.0 0.0 0.0 0.0 0.8 1.4 3.8 4.2 0.2 0.6 3.4 4.8 4.6 3.6 4.0 2.8 3.8 3.8 3.8 3.6 4.0
0.0 0.0 0.0 0.0 0.0 0.0 0.0 0.0 0.0 0.6 0.0 0.0 0.0 0.0 0.0 0.0 0.0 0.0 0.0 0.0 0.0 0.0 0.0 0.0 3.8 5.6 3.4 0.0 0.0 0.0 0.0 0.0 0.8 2.6 2.0 0.6 1.6 5.2 5.7 5.2 4.0 2.4 5.4 4.0 0.8 2.0 2.0 2.2 2.4 1.8 2.2 2.4 4.2 5.6
0.0 0.0 0.0 0.0 0.0 0.0 0.0 0.0 0.0 0.0 0.2 0.0 0.0 0.0 0.0 0.0 0.0 1.8 1.2 0.0 0.0 0.6 5.0 5.6 2.6 0.0 0.0 0.0 0.0 0.0 0.0 0.0 1.0 4.6 5.8 5.0 3.8 3.6 2.4 0.8 1.2 1.6 2.2 2.8 2.8 4.8 3.0 3.6 2.8 4.0 6.0 7.2 6.8 8.6
0.0 0.0 0.0 0.0 0.0 0.0 0.0 0.0 0.0 0.0 0.0 0.0 0.0 0.0 0.0 0.0 1.2 2.8 6.2 3.2 6.6 5.0 3.8 0.0 0.0 0.0 0.0 0.0 0.0 0.0 0.0 0.0 0.6 0.0 2.2 6.8 3.4 0.4 0.2 0.4 0.0 1.2 4.0 5.0 6.0 7.2 5.8 6.6 5.0 5.4 9.0 11.0 10.8 10.6
0.0 0.0 0.0 0.0 0.0 0.0 0.0 0.0 0.0 0.0 0.0 0.0 0.0 0.0 1.4 7.8 7.0 3.6 0.0 7.2 7.4 0.4 0.0 0.0 0.0 0.0 1.0 3.8 4.4 0.0 0.0 0.0 0.0 0.0 0.0 3.6 5.8 5.6 6.0 5.0 5.0 6.6 6.6 7.8 6.8 8.6 7.2 5.4 6.4 7.8 10.4 12.1 11.6 12.8
0.0 0.0 0.0 0.0 4.4 4.0 4.8 0.0 0.0 0.0 4.8 4.6 2.0 5.6 3.8 3.2 0.0 0.0 6.8 0.4 0.0 0.0 0.0 0.0 0.0 0.0 0.0 4.4 0.8 0.0 2.2 0.0 0.0 0.0 0.2 1.0 1.8 2.2 4.2 5.0 4.2 7.4 8.2 6.8 6.0 8.4 9.2 11.2 11.8 11.8 12.0 11.8 12.4 13.3
0.0 1.0 9.4 7.2 4.6 10.2 3.8 6.8 0.0 0.0 0.0 3.8 6.6 10.4 4.6 2.6 0.0 5.2 7.0 0.8 0.0 0.0 0.0 0.0 0.0 0.0 0.0 0.4 0.0 0.6 0.0 0.0 0.0 0.0 0.0 0.0 2.2 4.6 4.0 4.4 4.4 4.6 4.8 5.2 6.2 9.0 10.0 12.0 13.0 11.8 12.8 13.2 13.7 14.1
10.4 11.6 10.6 13.0 6.8 12.1 12.5 11.8 8.2 5.6 12.1 8.8 8.0 8.4 7.0 1.4 10.2 9.0 7.8 1.2 0.0 0.0 0.0 0.0 0.0 0.0 0.0 0.0 0.0 0.0 0.0 0.0 0.0 0.2 0.0 0.0 1.0 3.6 5.8 5.8 6.4 5.8 5.0 9.2 11.2 11.8 12.2 12.2 12.5 13.1 13.5 13.7 14.7 15.4
14.8 11.2 13.2 11.0 12.1 12.1 9.8 12.8 12.1 11.4 8.8 10.8 8.6 3.0 5.8 10.4 13.1 12.8 3.6 0.0 0.0 0.0 5.5 4.0 0.2 0.0 0.0 0.0 0.0 0.8 0.0 0.0 0.0 1.0 0.0 0.0 1.2 6.4 9.0 10.6 12.1 11.2 4.6 7.0 10.2 12.3 13.0 12.9 13.5 14.3 15.7 16.5 17.0 15.6
15.1 13.7 8.2 0.8 2.6 4.4 7.8 5.8 3.4 7.6 12.0 12.5 8.6 12.2 12.3 14.6 13.3 5.0 0.0 0.0 0.0 0.0 0.0 0.0 0.0 0.0 0.0 0.0 0.0 0.0 0.0 0.0 0.0 0.8 0.0 0.4 1.2 1.6 4.6 8.2 9.8 7.6 6.6 8.2 9.8 11.4 12.9 13.5 14.1 14.1 14.9 15.2 15.4 15.6
9.8 8.4 14.2 11.2 9.0 4.2 12.1 10.6 12.1 12.3 9.6 2.4 5.2 12.8 13.1 12.0 7.8 2.0 0.4 4.2 2.2 0.0 1.2 1.6 0.0 0.0 0.0 1.4 2.8 5.2 6.8 7.4 8.4 7.2 7.0 6.8 6.4 7.6 8.6 8.2 8.2 9.6 8.8 9.8 10.8 11.2 12.1 12.7 13.5 14.3 15.0 16.1 16.7 15.7
12.0 5.8 6.8 13.3 11.8 9.8 10.2 10.6 9.4 4.2 0.4 3.6 9.8 9.4 7.4 0.6 3.8 3.0 6.6 6.4 5.0 4.2 6.4 8.4 9.4 7.4 6.8 5.8 5.6 5.2 7.8 7.8 10.4 12.9 12.6 13.0 13.2 12.8 11.0 11.6 12.0 12.0 12.4 13.5 14.1 12.8 12.6 12.9 13.3 14.2 15.5 16.0 16.2 16.3
11.0 3.4 11.0 12.9 14.1 13.1 8.4 2.6 5.6 5.8 0.2 0.8 1.6 3.6 2.2 4.2 6.6 5.0 7.8 8.6 8.2 8.4 8.0 8.4 9.2 9.0 10.8 11.2 12.1 10.6 7.6 6.2 6.4 7.8 10.2 11.8 11.2 12.0 11.8 12.3 12.5 12.4 12.4 13.2 14.5 15.1 15.9 15.9 16.2 16.4 16.7 17.0 17.2 17.9
6.0 8.2 11.6 10.8 12.3 8.0 8.6 9.6 10.4 9.4 8.2 7.2 8.6 8.4 6.4 6.8 8.2 7.2 8.0 7.8 8.2 9.2 9.8 11.0 10.2 8.6 9.2 10.2 10.6 12.2 13.1 11.0 9.8 8.0 7.4 9.6 11.6 11.6 12.2 12.3 11.8 12.1 13.1 14.1 15.0 15.1 15.7 15.6 15.7 16.6 16.8 17.5 18.6 18.6
12.0 12.5 12.4 13.3 12.2 10.8 10.8 11.6 10.0 10.0 10.0 10.6 9.8 8.8 10.6 10.6 10.6 9.6 9.2 9.0 10.6 11.0 9.4 9.0 9.8 10.4 7.4 6.6 7.2 7.2 7.2 10.4 11.2 10.6 11.8 11.4 11.4 12.1 12.3 12.1 12.6 12.7 13.5 14.2 14.5 14.9 15.1 15.8 16.3 16.9 18.0 18.7 18.6 18.9
12.1 11.4 11.2 11.8 13.0 13.6 12.1 11.6 11.8 12.1 11.6 10.8 10.0 9.4 8.8 9.4 10.6 10.6 9.8 8.4 8.8 8.2 8.6 8.0 7.4 8.0 7.8 8.0 8.6 9.4 10.0 10.2 11.2 11.0 11.4 12.0 13.1 13.0 12.7 12.7 12.9 13.7 14.3 14.8 15.0 15.2 15.9 16.3 17.0 17.5 18.1 19.2 19.7 19.9